Weather History for Cecil Field, FL

Change the Weather History Date:

Wednesday, August 21, 2013

  Actual Average (KJAX) Record (KJAX)
Temperature  
Mean Temperature 78 °F 82 °F  
Max Temperature 86 °F 91 °F 101 °F (1901)
Min Temperature 71 °F 73 °F 66 °F (1961)
Degree Days  
Heating Degree Days 0 0  
Month to date heating degree days 0  
Since 1 June heating degree days 0  
Since 1 July heating degree days 0  
Cooling Degree Days 14 17  
Month to date cooling degree days 358  
Year to date cooling degree days 1827  
Since 1 June cooling degree days 1343  
Growing Degree Days 28 (Base 50)    
Moisture  
Dew Point 75 °F    
Average Humidity 95    
Maximum Humidity 100    
Minimum Humidity 70    
Precipitation  
Precipitation 0.00 in 0.22 in 3.83 in (1953)
Month to date precipitation 4.30  
Year to date precipitation 32.86  
Snow  
Snow 0.00 in 0.00 in 0.00 in (2002)
Month to date snowfall 0.0  
Since 1 June snowfall 0.0  
Since 1 July snowfall 0.0  
Snow Depth -    
Sea Level Pressure  
Sea Level Pressure 30.12 in    
Wind  
Wind Speed 1 mph (East)    
Max Wind Speed 12 mph    
Max Gust Speed -    
Visibility 7 miles    
Events Fog    
T = Trace of Precipitation, MM = Missing Value Source: NWS Daily Summary

Daily Weather History Graph

Daily Weather History Graph

Search for Another Location

Airport:

Trip Planner

Search our weather history database for the weather conditions in past years. The results will help you decide how hot, cold, wet, or windy it might be!

Date:

Astronomy

Aug. 21, 2013 Rise Set
Actual Time 6:58 AM EDT 8:02 PM EDT
Civil Twilight 6:33 AM EDT 8:27 PM EDT
Nautical Twilight 6:03 AM EDT 8:56 PM EDT
Astronomical Twilight 5:33 AM EDT 9:26 PM EDT
Moon 8:19 PM EDT (8/21) 7:30 AM EDT (8/21)
Length of Visible Light 13h 53m
Length of Day
13h 04m
Full, 100% of the Moon is Illuminated
Aug 21
Full
Aug 28
Last Quarter
Sep 5
New
Sep 12
First Quarter
Sep 19
Full

Hourly Weather History & Observations

Time (EDT) Temp. Heat Index Dew Point Humidity Pressure Visibility Wind Dir Wind Speed Gust Speed Precip Events Conditions
12:15 AM 73.4 °F - 73.4 °F 100% 30.13 in 5.0 mi Calm Calm - N/A   Clear
12:35 AM 73.4 °F - 73.4 °F 100% 30.13 in 5.0 mi Calm Calm - N/A   Clear
12:55 AM 75.2 °F - 75.2 °F 100% 30.12 in 8.0 mi Calm Calm - N/A   Clear
1:15 AM 73.4 °F - 73.4 °F 100% 30.12 in 5.0 mi Calm Calm - N/A   Clear
1:35 AM 73.4 °F - 73.4 °F 100% 30.12 in 7.0 mi Calm Calm - N/A   Clear
1:55 AM 73.4 °F - 73.4 °F 100% 30.12 in 5.0 mi Calm Calm - N/A   Clear
2:15 AM 73.4 °F - 73.4 °F 100% 30.11 in 6.0 mi Calm Calm - N/A   Clear
2:35 AM 73.4 °F - 73.4 °F 100% 30.10 in 8.0 mi Calm Calm - N/A   Clear
2:55 AM 73.4 °F - 73.4 °F 100% 30.11 in 9.0 mi Calm Calm - N/A   Clear
3:15 AM 73.4 °F - 73.4 °F 100% 30.11 in 6.0 mi Calm Calm - N/A   Clear
3:35 AM 73.4 °F - 73.4 °F 100% 30.11 in 5.0 mi Calm Calm - N/A   Clear
3:55 AM 71.6 °F - 71.6 °F 100% 30.11 in 3.0 mi Calm Calm - N/A   Clear
4:15 AM 73.4 °F - 73.4 °F 100% 30.11 in 1.5 mi Calm Calm - N/A   Clear
4:35 AM 73.4 °F - 73.4 °F 100% 30.11 in 5.0 mi Calm Calm - N/A   Clear
4:55 AM 71.6 °F - 71.6 °F 100% 30.11 in 0.2 mi Calm Calm - N/A Fog Fog
5:15 AM 71.6 °F - 71.6 °F 100% 30.11 in 1.8 mi Calm Calm - N/A   Clear
5:35 AM 73.4 °F - 73.4 °F 100% 30.11 in 5.0 mi Calm Calm - N/A   Clear
5:55 AM 71.6 °F - 71.6 °F 100% 30.11 in 2.0 mi Calm Calm - N/A   Clear
6:15 AM 71.6 °F - 71.6 °F 100% 30.12 in 1.0 mi Calm Calm - N/A   Clear
6:35 AM 71.6 °F - 71.6 °F 100% 30.12 in 0.2 mi Calm Calm - N/A Fog Fog
6:50 AM 71.6 °F - 71.6 °F 100% 30.12 in 2.0 mi Calm Calm - N/A   Partly Cloudy
7:30 AM 71.6 °F - 71.6 °F 100% 30.13 in 5.0 mi Variable 3.5 mph - N/A   Clear
7:50 AM 73.4 °F - 73.4 °F 100% 30.13 in 7.0 mi Variable 3.5 mph - N/A   Clear
8:50 AM 78.8 °F - 78.8 °F 100% 30.15 in 10.0 mi Calm Calm - N/A   Clear
9:50 AM 82.4 °F 92.4 °F 78.8 °F 89% 30.16 in 10.0 mi Variable 3.5 mph - N/A   Mostly Cloudy
10:50 AM 86.0 °F 96.9 °F 77.0 °F 74% 30.17 in 10.0 mi East 6.9 mph - N/A   Mostly Cloudy
11:50 AM 86.0 °F 95.1 °F 75.2 °F 70% 30.17 in 10.0 mi East 9.2 mph - N/A   Mostly Cloudy
12:50 PM 84.2 °F 94.1 °F 77.0 °F 79% 30.16 in 10.0 mi East 8.1 mph - N/A   Mostly Cloudy
1:50 PM 82.4 °F 90.9 °F 77.0 °F 84% 30.15 in 10.0 mi ESE 4.6 mph - N/A   Mostly Cloudy
2:50 PM 80.6 °F 88.1 °F 78.8 °F 94% 30.15 in 10.0 mi East 5.8 mph - N/A   Mostly Cloudy
3:50 PM 84.2 °F 94.1 °F 77.0 °F 79% 30.14 in 10.0 mi East 5.8 mph - N/A   Scattered Clouds
4:50 PM 84.2 °F 92.3 °F 75.2 °F 74% 30.10 in 10.0 mi East 11.5 mph - N/A   Scattered Clouds
5:50 PM 84.2 °F 92.3 °F 75.2 °F 74% 30.11 in 10.0 mi East 11.5 mph - N/A   Scattered Clouds
6:50 PM 82.4 °F 89.5 °F 75.2 °F 79% 30.11 in 10.0 mi East 8.1 mph - N/A   Scattered Clouds
7:50 PM 80.6 °F 87.1 °F 77.0 °F 89% 30.11 in 10.0 mi East 5.8 mph - N/A   Scattered Clouds
8:15 PM 80.6 °F 87.1 °F 77.0 °F 89% 30.11 in 10.0 mi Calm Calm - N/A   Clear
8:35 PM 80.6 °F 87.1 °F 77.0 °F 89% 30.12 in 10.0 mi Calm Calm - N/A   Scattered Clouds
8:55 PM 80.6 °F 87.1 °F 77.0 °F 89% 30.12 in 10.0 mi Calm Calm - N/A   Scattered Clouds
9:15 PM 78.8 °F - 77.0 °F 94% 30.12 in 10.0 mi Calm Calm - N/A   Partly Cloudy
9:35 PM 77.0 °F - 77.0 °F 100% 30.12 in 10.0 mi Calm Calm - N/A   Clear
9:55 PM 77.0 °F - 77.0 °F 100% 30.12 in 10.0 mi Calm Calm - N/A   Clear
10:15 PM 77.0 °F - 77.0 °F 100% 30.12 in 10.0 mi Calm Calm - N/A   Clear
10:35 PM 77.0 °F - 77.0 °F 100% 30.13 in 10.0 mi Calm Calm - N/A   Clear
10:55 PM 77.0 °F - 77.0 °F 100% 30.13 in 10.0 mi Calm Calm - N/A   Clear
11:15 PM 77.0 °F - 77.0 °F 100% 30.13 in 10.0 mi Calm Calm - N/A   Clear
11:35 PM 77.0 °F - 77.0 °F 100% 30.13 in 9.0 mi Calm Calm - N/A   Clear
11:55 PM 77.0 °F - 77.0 °F 100% 30.13 in 9.0 mi NNE 3.5 mph - N/A   Clear